Location: Colfax Spring
(37.8208°N, 120.0277°W)
Time: 20:53:23
(UTC+00:00)

USA 234 - Visible Passes

Search period start: 19 September 2024 00:00
Search period end: 29 September 2024 00:00
Orbit: 1100 x 1107 km, 123.0° (Epoch: 08 July)

Date Brightness Start Highest point End Pass type
(mag) Time Alt. Az. Time Alt. Az. Time Alt. Az.
19 Sep 4.2 02:59:26 10° SSE 03:05:38 45° SW 03:11:53 10° WNW visible
20 Sep 3.4 02:16:11 10° SE 02:22:45 89° SW 02:29:20 10° NW visible
20 Sep 5.3 04:01:34 10° SSW 04:06:13 21° WSW 04:10:54 10° WNW visible
21 Sep 4.2 03:16:54 10° SSE 03:23:06 45° SW 03:29:20 10° WNW visible
22 Sep 3.3 02:33:39 10° SE 02:40:12 89° SW 02:46:48 10° NW visible
22 Sep 5.2 04:19:04 10° SSW 04:23:41 20° WSW 04:28:20 10° WNW visible
23 Sep 4.1 03:34:34 11° SSE 03:40:33 45° SW 03:46:48 10° WNW visible
24 Sep 3.3 02:51:07 10° SE 02:57:40 88° SW 03:04:15 10° NW visible
24 Sep 5.2 04:37:56 14° SSW 04:41:09 20° WSW 04:45:47 10° WNW visible
25 Sep 3.6 02:08:45 10° ESE 02:15:02 51° NE 02:21:20 10° NW visible
25 Sep 4.1 03:53:53 21° S 03:58:01 44° SW 04:04:15 10° WNW visible
26 Sep 3.2 03:09:46 16° SE 03:15:08 88° SW 03:21:44 10° NW visible
26 Sep 5.0 04:57:09 19° SW 04:58:37 20° WSW 05:03:14 10° WNW visible
27 Sep 3.6 02:26:13 10° ESE 02:32:29 51° NE 02:38:48 10° NW visible
27 Sep 4.0 04:13:02 32° S 04:15:29 44° SW 04:21:42 10° WNW visible
28 Sep 3.2 03:28:52 28° SE 03:32:35 88° SW 03:39:11 10° NW visible
28 Sep 5.1 05:16:14 20° WSW 05:16:14 20° WSW 05:20:40 10° WNW visible
